| time (UTC) | temp F | wind direction | speed knots | gust knots | rain 1hr in | rain 24hr in | rain mn in | humidity % | barometer mb |
| 20260905185150 | 94 | 243 | 0.0 | 0.0 | 0.00 | 0.00 | 0.00 | ||
| 20260905184649 | 95 | 243 | 1.7 | 0.0 | 0.00 | 0.00 | 0.00 | ||
| 20260905184150 | 94 | 191 | 2.6 | 1.7 | 0.00 | 0.00 | 0.00 | ||
| 20260905183150 | 94 | 329 | 0.9 | 0.0 | 0.00 | 0.00 | 0.00 | ||
| 20260905182648 | 94 | 243 | 0.9 | 0.0 | 0.00 | 0.00 | 0.00 | ||
| 20260905182149 | 93 | 139 | 0.0 | 0.9 | 0.00 | 0.00 | 0.00 | ||
| 20260905181149 | 93 | 97 | 0.9 | 0.9 | 0.00 | 0.00 | 0.00 | ||
| 20260905180647 | 93 | 211 | 0.0 | 0.0 | 0.00 | 0.00 | 0.00 | ||
| 20260905175645 | 92 | 359 | 0.9 | 1.7 | 0.00 | 0.00 | 0.00 | ||
| 20260905175146 | 93 | 80 | 1.7 | 0.9 | 0.00 | 0.00 | 0.00 | ||
| 20260905174644 | 93 | 249 | 0.9 | 0.9 | 0.00 | 0.00 | 0.00 | ||
| 20260905173642 | 93 | 96 | 1.7 | 0.9 | 0.00 | 0.00 | 0.00 | ||
| 20260905173143 | 93 | 91 | 0.0 | 0.9 | 0.00 | 0.00 | 0.00 | ||
| 20260905172641 | 92 | 325 | 1.7 | 0.9 | 0.00 | 0.00 | 0.00 | ||
| 20260905171640 | 92 | 257 | 0.9 | 0.0 | 0.00 | 0.00 | 0.00 | ||
| 20260905170640 | 92 | 46 | 0.9 | 0.0 | 0.00 | 0.00 | 0.00 | ||
| 20260905165639 | 91 | 100 | 0.9 | 0.9 | 0.00 | 0.00 | 0.00 | ||
| 20260905164639 | 92 | 311 | 3.5 | 1.7 | 0.00 | 0.00 | 0.00 | ||
| 20260905164140 | 92 | 329 | 2.6 | 3.5 | 0.00 | 0.00 | 0.00 | ||
| 20260905163638 | 91 | 255 | 2.6 | 2.6 | 0.00 | 0.00 | 0.00 | ||
| 20260905163139 | 91 | 219 | 0.9 | 2.6 | 0.00 | 0.00 | 0.00 | ||
| 20260905162139 | 91 | 329 | 2.6 | 2.6 | 0.00 | 0.00 | 0.00 | ||
| 20260905161637 | 90 | 359 | 1.7 | 2.6 | 0.00 | 0.00 | 0.00 | ||
| 20260905161138 | 90 | 323 | 0.9 | 3.5 | 0.00 | 0.00 | 0.00 | ||
| 20260905160637 | 90 | 231 | 1.7 | 1.7 | 0.00 | 0.00 | 0.00 | ||
| 20260905160138 | 90 | 1 | 1.7 | 3.5 | 0.00 | 0.00 | 0.00 | ||
| 20260905155636 | 90 | 197 | 2.6 | 0.9 | 0.00 | 0.00 | 0.00 | ||
| 20260905154636 | 89 | 285 | 1.7 | 6.1 | 0.00 | 0.00 | 0.00 | ||
| 20260905154137 | 89 | 326 | 1.7 | 0.9 | 0.00 | 0.00 | 0.00 | ||
| 20260905153635 | 89 | 339 | 0.0 | 3.5 | 0.00 | 0.00 | 0.00 | ||
| 20260905153136 | 89 | 238 | 1.7 | 1.7 | 0.00 | 0.00 | 0.00 | ||
| 20260905152634 | 89 | 339 | 1.7 | 2.6 | 0.00 | 0.00 | 0.00 | ||
| 20260905151634 | 89 | 1 | 1.7 | 1.7 | 0.00 | 0.00 | 0.00 | ||
| 20260905151135 | 89 | 318 | 2.6 | 1.7 | 0.00 | 0.00 | 0.00 | ||
| 20260905150135 | 88 | 3 | 1.7 | 0.9 | 0.00 | 0.00 | 0.00 | ||
| 20260905145633 | 87 | 270 | 0.0 | 0.0 | 0.00 | 0.00 | 0.00 | ||
| 20260905145134 | 87 | 252 | 4.3 | 2.6 | 0.00 | 0.00 | 0.00 | ||
| 20260905144134 | 86 | 332 | 0.9 | 0.9 | 0.00 | 0.00 | 0.00 | ||
| 20260905142630 | 85 | 277 | 2.6 | 2.6 | 0.00 | 0.00 | 0.00 | ||
| 20260905141627 | 84 | 339 | 1.7 | 0.9 | 0.00 | 0.00 | 0.00 | ||
| 20260905141128 | 83 | 3 | 3.5 | 3.5 | 0.00 | 0.00 | 0.00 | ||
| 20260905135626 | 83 | 325 | 1.7 | 2.6 | 0.00 | 0.00 | 0.00 | ||
| 20260905134128 | 82 | 248 | 2.6 | 2.6 | 0.00 | 0.00 | 0.00 | ||
| 20260905133625 | 81 | 208 | 0.9 | 0.0 | 0.00 | 0.00 | 0.00 | ||
| 20260905132625 | 81 | 297 | 1.7 | 2.6 | 0.00 | 0.00 | 0.00 | ||
| 20260905131126 | 81 | 295 | 1.7 | 2.6 | 0.00 | 0.00 | 0.00 | ||
| 20260905130101 | 76 | 332 | 0.0 | 0.0 | 0.00 | 0.00 | 0.00 | ||
| 20260905125623 | 81 | 263 | 0.9 | 0.0 | 0.00 | 0.00 | 0.00 | ||
| 20260905125124 | 80 | 198 | 0.0 | 0.0 | 0.00 | 0.00 | 0.00 | ||
| 20260905124123 | 80 | 312 | 1.7 | 0.9 | 0.00 | 0.00 | 0.00 | ||
| 20260905123620 | 80 | 318 | 0.0 | 0.9 | 0.00 | 0.00 | 0.00 | ||
| 20260905123152 | 80 | 329 | 0.9 | 2.6 | 0.00 | 0.00 | 0.00 | ||
| 20260905123121 | 80 | 329 | 0.9 | 2.6 | 0.00 | 0.00 | 0.00 | ||
| 20260905122120 | 79 | 305 | 0.9 | 0.0 | 0.00 | 0.00 | 0.00 | ||
| 20260905121618 | 79 | 308 | 0.0 | 0.0 | 0.00 | 0.00 | 0.00 | ||
| 20260905120702 | 78 | 316 | 0.0 | 0.0 | 0.00 | 0.00 | 0.00 | ||
| 20260905120616 | 78 | 316 | 0.0 | 0.0 | 0.00 | 0.00 | 0.00 | ||
| 20260905120117 | 79 | 316 | 0.0 | 0.0 | 0.00 | 0.00 | 0.00 | ||
| 20260905115737 | 78 | 316 | 0.0 | 0.0 | 0.00 | 0.00 | 0.00 | ||
| 20260905115614 | 78 | 316 | 0.0 | 0.0 | 0.00 | 0.00 | 0.00 | ||
| 20260905114613 | 77 | 316 | 0.0 | 0.0 | 0.00 | 0.00 | 0.00 | ||
| 20260905114337 | 77 | 316 | 0.0 | 0.0 | 0.00 | 0.00 | 0.00 | ||
| 20260905114115 | 77 | 316 | 0.0 | 0.0 | 0.00 | 0.00 | 0.00 | ||
| 20260905111609 | 76 | 273 | 0.0 | 0.0 | 0.00 | 0.00 | 0.00 | ||
| 20260905110605 | 75 | 318 | 0.0 | 0.0 | 0.00 | 0.00 | 0.00 | ||
| 20260905110105 | 75 | 318 | 0.0 | 0.0 | 0.00 | 0.00 | 0.00 | ||
| 20260905105602 | 75 | 332 | 0.0 | 0.0 | 0.00 | 0.00 | 0.00 | ||
| 20260905105103 | 74 | 332 | 0.0 | 0.0 | 0.00 | 0.00 | 0.00 | ||
| 20260905104102 | 75 | 332 | 0.0 | 0.0 | 0.00 | 0.00 | 0.00 | ||
| 20260905102559 | 74 | 332 | 0.0 | 0.0 | 0.00 | 0.00 | 0.00 | ||
| 20260905102100 | 75 | 332 | 0.0 | 0.0 | 0.00 | 0.00 | 0.00 | ||
| 20260905101100 | 75 | 332 | 0.0 | 0.0 | 0.00 | 0.00 | 0.00 | ||
| 20260905100059 | 75 | 332 | 0.0 | 0.0 | 0.00 | 0.00 | 0.00 | ||
| 20260905095557 | 75 | 332 | 0.0 | 0.0 | 0.00 | 0.00 | 0.00 | ||
| 20260905094555 | 75 | 332 | 0.0 | 0.0 | 0.00 | 0.00 | 0.00 | ||
| 20260905094057 | 75 | 332 | 0.0 | 0.0 | 0.00 | 0.00 | 0.00 | ||
| 20260905093554 | 75 | 332 | 0.0 | 0.0 | 0.00 | 0.00 | 0.00 | ||
| 20260905093056 | 75 | 332 | 0.0 | 0.0 | 0.00 | 0.00 | 0.00 | ||
| 20260905092552 | 75 | 332 | 0.0 | 0.0 | 0.00 | 0.00 | 0.00 | ||
| 20260905091550 | 75 | 332 | 0.0 | 0.0 | 0.00 | 0.00 | 0.00 | ||
| 20260905091051 | 75 | 332 | 0.0 | 0.0 | 0.00 | 0.00 | 0.00 | ||
| 20260905090548 | 75 | 332 | 0.0 | 0.0 | 0.00 | 0.00 | 0.00 | ||
| 20260905090049 | 75 | 332 | 0.0 | 0.0 | 0.00 | 0.00 | 0.00 | ||
| 20260905085546 | 75 | 332 | 0.0 | 0.0 | 0.00 | 0.00 | 0.00 | ||
| 20260905085047 | 75 | 332 | 0.0 | 0.0 | 0.00 | 0.00 | 0.00 | ||
| 20260905084544 | 76 | 332 | 0.0 | 0.0 | 0.00 | 0.00 | 0.00 | ||
| 20260905083542 | 76 | 332 | 0.0 | 0.0 | 0.00 | 0.00 | 0.00 | ||
| 20260905083041 | 76 | 332 | 0.0 | 0.0 | 0.00 | 0.00 | 0.00 | ||
| 20260905082538 | 75 | 332 | 0.0 | 0.0 | 0.00 | 0.00 | 0.00 | ||
| 20260905082040 | 76 | 332 | 0.0 | 0.0 | 0.00 | 0.00 | 0.00 | ||
| 20260905081538 | 75 | 332 | 0.0 | 0.0 | 0.00 | 0.00 | 0.00 | ||
| 20260905081039 | 76 | 332 | 0.0 | 0.0 | 0.00 | 0.00 | 0.00 | ||
| 20260905075534 | 76 | 332 | 0.0 | 0.0 | 0.00 | 0.00 | 0.00 | ||
| 20260905073529 | 76 | 332 | 0.0 | 0.0 | 0.00 | 0.00 | 0.00 | ||
| 20260905072026 | 76 | 7 | 0.0 | 0.0 | 0.00 | 0.00 | 0.00 | ||
| 20260905071523 | 76 | 7 | 0.0 | 0.0 | 0.00 | 0.00 | 0.00 | ||
| 20260905071024 | 76 | 7 | 0.0 | 0.0 | 0.00 | 0.00 | 0.00 | ||
| 20260905070522 | 76 | 7 | 0.0 | 0.0 | 0.00 | 0.00 | 0.00 | ||
| 20260905070023 | 77 | 7 | 0.0 | 0.0 | 0.00 | 0.00 | 0.00 | ||
| 20260905065520 | 76 | 7 | 0.0 | 0.0 | 0.00 | 0.00 | 0.00 | ||
| 20260905065022 | 77 | 7 | 0.0 | 0.0 | 0.00 | 0.00 | 0.00 | ||
| 20260905064519 | 76 | 7 | 0.0 | 0.0 | 0.00 | 0.00 | 0.00 | ||
| 20260905064021 | 77 | 7 | 0.0 | 0.0 | 0.00 | 0.00 | 0.00 | ||
| 20260905063517 | 77 | 7 | 0.0 | 0.0 | 0.00 | 0.00 | 0.00 | ||
| 20260905063019 | 76 | 7 | 0.0 | 0.0 | 0.00 | 0.00 | 0.00 | ||
| 20260905062557 | 77 | 7 | 0.0 | 0.0 | 0.00 | 0.00 | 0.00 | ||
| 20260905062520 | 77 | 7 | 0.0 | 0.0 | 0.00 | 0.00 | 0.00 | ||
| 20260905062018 | 76 | 7 | 0.0 | 0.0 | 0.00 | 0.00 | 0.00 | ||
| 20260905061516 | 76 | 7 | 0.0 | 0.0 | 0.00 | 0.00 | 0.00 | ||
| 20260905061016 | 76 | 7 | 0.0 | 0.0 | 0.00 | 0.00 | 0.00 | ||
| 20260905060514 | 77 | 7 | 0.0 | 0.0 | 0.00 | 0.00 | 0.00 | ||
| 20260905054513 | 77 | 7 | 0.0 | 0.0 | 0.00 | 0.00 | 0.00 | ||
| 20260905053513 | 77 | 7 | 0.0 | 0.0 | 0.00 | 0.00 | 0.00 | ||
| 20260905053013 | 77 | 7 | 0.0 | 0.0 | 0.00 | 0.00 | 0.00 | ||
| 20260905052511 | 77 | 7 | 0.0 | 0.0 | 0.00 | 0.00 | 0.00 | ||
| 20260905052011 | 77 | 7 | 0.0 | 0.0 | 0.00 | 0.00 | 0.00 | ||
| 20260905051508 | 77 | 7 | 0.0 | 0.0 | 0.00 | 0.00 | 0.00 | ||
| 20260905051010 | 77 | 7 | 0.0 | 0.0 | 0.00 | 0.00 | 0.00 | ||
| 20260905050507 | 78 | 7 | 0.0 | 0.0 | 0.00 | 0.00 | 0.00 | ||
| 20260905050008 | 78 | 7 | 0.0 | 0.0 | 0.00 | 0.00 | 0.00 | ||
| 20260905045505 | 77 | 7 | 0.0 | 0.0 | 0.00 | 0.00 | 0.00 | ||
| 20260905045006 | 78 | 7 | 0.0 | 0.0 | 0.00 | 0.00 | 0.00 | ||
| 20260905044507 | 78 | 7 | 0.0 | 0.0 | 0.00 | 0.00 | 0.00 | ||
| 20260905044005 | 78 | 7 | 0.0 | 0.0 | 0.00 | 0.00 | 0.00 | ||
| 20260905043503 | 78 | 7 | 0.0 | 0.0 | 0.00 | 0.00 | 0.00 | ||
| 20260905043004 | 78 | 7 | 0.0 | 0.0 | 0.00 | 0.00 | 0.00 | ||
| 20260905042502 | 78 | 7 | 0.0 | 0.0 | 0.00 | 0.00 | 0.00 | ||
| 20260905041458 | 78 | 7 | 0.0 | 0.0 | 0.00 | 0.00 | 0.00 | ||
| 20260905040959 | 79 | 7 | 0.0 | 0.0 | 0.00 | 0.00 | 0.00 | ||
| 20260905040457 | 79 | 7 | 0.0 | 0.0 | 0.00 | 0.00 | 0.00 | ||
| 20260905035958 | 78 | 7 | 0.0 | 0.0 | 0.00 | 0.00 | 0.00 | ||
| 20260905035455 | 78 | 7 | 0.0 | 0.0 | 0.00 | 0.00 | 0.00 | ||
| 20260905035115 | 78 | 7 | 0.0 | 0.0 | 0.00 | 0.00 | 0.00 | ||
| 20260905034955 | 78 | 7 | 0.0 | 0.0 | 0.00 | 0.00 | 0.00 | ||
| 20260905034453 | 78 | 7 | 0.0 | 0.0 | 0.00 | 0.00 | 0.00 | ||
| 20260905033954 | 79 | 7 | 0.0 | 0.0 | 0.00 | 0.00 | 0.00 | ||
| 20260905033449 | 79 | 7 | 0.0 | 0.0 | 0.00 | 0.00 | 0.00 | ||
| 20260905032448 | 79 | 260 | 0.0 | 0.0 | 0.00 | 0.00 | 0.00 | ||
| 20260905031949 | 79 | 260 | 0.0 | 0.0 | 0.00 | 0.00 | 0.00 | ||
| 20260905031448 | 78 | 260 | 0.0 | 0.0 | 0.00 | 0.00 | 0.00 | ||
| 20260905030948 | 79 | 260 | 0.0 | 0.0 | 0.00 | 0.00 | 0.00 | ||
| 20260905030445 | 79 | 260 | 0.0 | 0.0 | 0.00 | 0.00 | 0.00 | ||
| 20260905025946 | 79 | 260 | 0.0 | 0.0 | 0.00 | 0.00 | 0.00 | ||
| 20260905025443 | 80 | 260 | 0.0 | 0.0 | 0.00 | 0.00 | 0.00 | ||
| 20260905024944 | 79 | 260 | 0.0 | 0.0 | 0.00 | 0.00 | 0.00 | ||
| 20260905024440 | 79 | 260 | 0.0 | 0.0 | 0.00 | 0.00 | 0.00 | ||
| 20260905023941 | 79 | 260 | 0.0 | 0.0 | 0.00 | 0.00 | 0.00 | ||
| 20260905023437 | 80 | 260 | 0.0 | 0.0 | 0.00 | 0.00 | 0.00 | ||
| 20260905023029 | 79 | 260 | 0.0 | 0.0 | 0.00 | 0.00 | 0.00 | ||
| 20260905022938 | 79 | 260 | 0.0 | 0.0 | 0.00 | 0.00 | 0.00 | ||
| 20260905022436 | 79 | 260 | 0.0 | 0.0 | 0.00 | 0.00 | 0.00 | ||
| 20260905021937 | 80 | 260 | 0.0 | 0.0 | 0.00 | 0.00 | 0.00 | ||
| 20260905021433 | 80 | 260 | 0.0 | 0.0 | 0.00 | 0.00 | 0.00 | ||
| 20260905020432 | 80 | 260 | 0.0 | 0.0 | 0.00 | 0.00 | 0.00 | ||
| 20260905015934 | 79 | 260 | 0.0 | 0.0 | 0.00 | 0.00 | 0.00 | ||
| 20260905014932 | 80 | 260 | 0.0 | 0.0 | 0.00 | 0.00 | 0.00 | ||
| 20260905014430 | 80 | 260 | 0.0 | 0.0 | 0.00 | 0.00 | 0.00 | ||
| 20260905013931 | 80 | 260 | 0.0 | 0.0 | 0.00 | 0.00 | 0.00 | ||
| 20260905013428 | 80 | 260 | 0.0 | 0.0 | 0.00 | 0.00 | 0.00 | ||
| 20260905012424 | 81 | 260 | 0.0 | 0.0 | 0.00 | 0.00 | 0.00 | ||
| 20260905011925 | 81 | 260 | 0.0 | 0.0 | 0.00 | 0.00 | 0.00 | ||
| 20260905011421 | 81 | 260 | 0.0 | 0.0 | 0.00 | 0.00 | 0.00 | ||
| 20260905010419 | 81 | 260 | 0.0 | 0.0 | 0.00 | 0.00 | 0.00 | ||
| 20260905005920 | 81 | 260 | 0.0 | 0.0 | 0.00 | 0.00 | 0.00 | ||
| 20260905005416 | 81 | 236 | 0.0 | 0.0 | 0.00 | 0.00 | 0.00 | ||
| 20260905004918 | 82 | 236 | 0.0 | 0.0 | 0.00 | 0.00 | 0.00 | ||
| 20260905004414 | 82 | 236 | 0.0 | 0.0 | 0.00 | 0.00 | 0.00 | ||
| 20260905003915 | 82 | 236 | 0.0 | 0.0 | 0.00 | 0.00 | 0.00 | ||
| 20260905003413 | 82 | 253 | 0.0 | 0.0 | 0.00 | 0.00 | 0.00 | ||
| 20260905002914 | 82 | 243 | 0.0 | 0.0 | 0.00 | 0.00 | 0.00 | ||
| 20260905001913 | 83 | 239 | 0.0 | 0.0 | 0.00 | 0.00 | 0.00 | ||
| 20260905001411 | 83 | 283 | 0.0 | 0.0 | 0.00 | 0.00 | 0.00 | ||
| 20260905000912 | 83 | 301 | 0.0 | 0.0 | 0.00 | 0.00 | 0.00 | ||
| 20260905000410 | 83 | 232 | 0.0 | 0.0 | 0.00 | 0.00 | 0.00 | ||
| 20260904235909 | 83 | 329 | 0.9 | 0.9 | 0.00 | 0.00 | 0.00 | ||
| 20260904235408 | 84 | 288 | 0.0 | 0.0 | 0.00 | 0.00 | 0.00 | ||
| 20260904234909 | 84 | 228 | 0.0 | 0.0 | 0.00 | 0.00 | 0.00 | ||
| 20260904234405 | 84 | 228 | 0.0 | 0.0 | 0.00 | 0.00 | 0.00 | ||
| 20260904233906 | 84 | 252 | 0.0 | 1.7 | 0.00 | 0.00 | 0.00 | ||
| 20260904233405 | 84 | 290 | 0.0 | 0.0 | 0.00 | 0.00 | 0.00 | ||
| 20260904232906 | 85 | 290 | 0.0 | 0.0 | 0.00 | 0.00 | 0.00 | ||
| 20260904232404 | 85 | 208 | 0.0 | 0.0 | 0.00 | 0.00 | 0.00 | ||
| 20260904231905 | 85 | 32 | 0.0 | 0.0 | 0.00 | 0.00 | 0.00 | ||
| 20260904231403 | 85 | 271 | 0.0 | 0.0 | 0.00 | 0.00 | 0.00 | ||
| 20260904230905 | 86 | 6 | 0.9 | 1.7 | 0.00 | 0.00 | 0.00 | ||
| 20260904230402 | 86 | 252 | 0.9 | 0.0 | 0.00 | 0.00 | 0.00 | ||
| 20260904225401 | 86 | 316 | 1.7 | 2.6 | 0.00 | 0.00 | 0.00 | ||
| 20260904224902 | 87 | 45 | 0.9 | 0.0 | 0.00 | 0.00 | 0.00 | ||
| 20260904224359 | 87 | 304 | 0.9 | 0.9 | 0.00 | 0.00 | 0.00 | ||
| 20260904223900 | 87 | 221 | 0.9 | 0.0 | 0.00 | 0.00 | 0.00 | ||
| 20260904222859 | 87 | 49 | 1.7 | 0.9 | 0.00 | 0.00 | 0.00 | ||
| 20260904222355 | 87 | 143 | 2.6 | 0.9 | 0.00 | 0.00 | 0.00 | ||
| 20260904221856 | 87 | 150 | 2.6 | 6.1 | 0.00 | 0.00 | 0.00 | ||
| 20260904221354 | 87 | 7 | 0.9 | 0.0 | 0.00 | 0.00 | 0.00 | ||
| 20260904220855 | 88 | 46 | 2.6 | 1.7 | 0.00 | 0.00 | 0.00 | ||
| 20260904220351 | 88 | 160 | 5.2 | 2.6 | 0.00 | 0.00 | 0.00 | ||
| 20260904215852 | 88 | 108 | 4.3 | 5.2 | 0.00 | 0.00 | 0.00 | ||
| 20260904215351 | 88 | 146 | 3.5 | 3.5 | 0.00 | 0.00 | 0.00 | ||
| 20260904214343 | 89 | 142 | 1.7 | 2.6 | 0.00 | 0.00 | 0.00 | ||
| 20260904213842 | 88 | 129 | 3.5 | 4.3 | 0.00 | 0.00 | 0.00 | ||
| 20260904213340 | 88 | 153 | 3.5 | 4.3 | 0.00 | 0.00 | 0.00 | ||
| 20260904212338 | 89 | 15 | 0.9 | 0.0 | 0.00 | 0.00 | 0.00 | ||
| 20260904210838 | 89 | 110 | 3.5 | 1.7 | 0.00 | 0.00 | 0.00 | ||
| 20260904205837 | 90 | 122 | 2.6 | 3.5 | 0.00 | 0.00 | 0.00 | ||
| 20260904205335 | 90 | 86 | 1.7 | 2.6 | 0.00 | 0.00 | 0.00 | ||
| 20260904204836 | 89 | 125 | 4.3 | 3.5 | 0.00 | 0.00 | 0.00 | ||
| 20260904204334 | 90 | 132 | 3.5 | 3.5 | 0.00 | 0.00 | 0.00 | ||
| 20260904203835 | 90 | 159 | 5.2 | 2.6 | 0.00 | 0.00 | 0.00 | ||
| 20260904202834 | 89 | 128 | 3.5 | 1.7 | 0.00 | 0.00 | 0.00 | ||
| 20260904201833 | 89 | 131 | 0.9 | 5.2 | 0.00 | 0.00 | 0.00 | ||
| 20260904201330 | 91 | 135 | 4.3 | 7.8 | 0.00 | 0.00 | 0.00 | ||
| 20260904200830 | 90 | 104 | 3.5 | 5.2 | 0.00 | 0.00 | 0.00 | ||
| 20260904195830 | 89 | 162 | 6.1 | 6.1 | 0.00 | 0.00 | 0.00 | ||
| 20260904195325 | 90 | 97 | 6.1 | 2.6 | 0.00 | 0.00 | 0.00 | ||
| 20260904194826 | 90 | 150 | 6.1 | 4.3 | 0.00 | 0.00 | 0.00 | ||
| 20260904193825 | 91 | 134 | 2.6 | 3.5 | 0.00 | 0.00 | 0.00 | ||
| 20260904192824 | 90 | 76 | 4.3 | 0.9 | 0.00 | 0.00 | 0.00 | ||
| 20260904192320 | 91 | 238 | 0.0 | 3.5 | 0.00 | 0.00 | 0.00 | ||
| 20260904191820 | 91 | 195 | 1.7 | 1.7 | 0.00 | 0.00 | 0.00 | ||
| 20260904191319 | 90 | 145 | 4.3 | 3.5 | 0.00 | 0.00 | 0.00 | ||
| 20260904185818 | 89 | 153 | 3.5 | 4.3 | 0.00 | 0.00 | 0.00 | ||
| 20260904185317 | 90 | 152 | 6.1 | 5.2 | 0.00 | 0.00 | 0.00 |